Погода в Фёдоровке

Казахстан     51°13′28″N   51°57′49″E
темп.,
°C
ветер,
м/с
пор.,
м/с
влажн.,
%
обл.,
%
осадки,
мм/ч
давл.,
гПа
погр.,
м
1 марта, пн
пн123:00−16з489691 0.1 1013138
02:00−17зсз469778 0.0 1015110
05:00−18зсз349787 0.1 101675
08:00−17зсз479793 0.1 1018171
11:00−14сз469593 0.2 1020297
14:00−14сз469292 0.0 1021334
17:00−14зсз469291 0.0 1022347
20:00−19зсз349652 0.0 102335
2 марта, вт
вт223:00−21з339826 0.0 102420
02:00−21зюз34990 0.0 102435
05:00−20юз4510019 0.0 102367
08:00−19юз699883 0.0 1021184
11:00−14юз8129591 0.0 1019302
14:00−8юз91594100 0.1 1015482
17:00−4юз91595100 1.0 1012840
20:00−3юз91595100 0.9 1010749
3 марта, ср
ср323:00−3юз91596100 2.3 1008670
02:00−2юз81496100 0.9 1005565
05:00−2юз61197100 2.3 1005483
08:00−2юз5997100 1.1 1003398
11:00−1зюз4698100 1.9 1004349
14:000сз34100100 0.8 1004309
17:00−1сз359495 0.9 1004314
20:00−7сз449448 0.0 100561
4 марта, чт
чт423:00−9сз349624 0.0 100855
02:00−9сз499774 0.0 1009157
05:00−11сз479660 0.1 1012119
08:00−14зсз45960 0.0 101471
11:00−11з47940 0.0 1015231
14:00−7юз69921 0.0 1015345
17:00−5юз8149340 0.1 1014697
20:00−3юз91594100 0.3 1012877
5 марта, пт
пт523:00−1юз101691100 0.6 1012868
02:00−3юз9198785 0.0 1011565
05:00−3юз10198689 0.0 1010557
08:00−4юз9178947 0.0 1011508
11:00−3юз9159059 0.0 1012548
14:00−1юз9139397 0.0 1012600
17:000юз8139799 0.5 1013645
20:000зюз71295100 0.4 1013677